This is the latest recevied weather packets stored in our database for station/object K6POO-1. If no packets are shown the sender has not sent any weather packets the latest 10 day(s).
| Time | Temp. | Humidity | Pressure | Rain* | Wind** | Luminosity | Snow |
|---|---|---|---|---|---|---|---|
| 1778190875 | 17.78° C | 65% | 1018 hPa | 0 mm | - | 816 W/m² | - |
| 1778190572 | 18.33° C | 66% | 1017.9 hPa | 0 mm | - | 829 W/m² | - |
| 1778190270 | 17.78° C | 70% | 1017.9 hPa | 0 mm | - | 841 W/m² | - |
| 1778189966 | 17.22° C | 69% | 1018.1 hPa | 0 mm | - | 852 W/m² | - |
| 1778189662 | 17.78° C | 70% | 1018.3 hPa | 0 mm | - | 864 W/m² | - |
| 1778189359 | 17.78° C | 69% | 1018.4 hPa | 0 mm | - | 875 W/m² | - |
| 1778189055 | 17.78° C | 68% | 1018.3 hPa | 0 mm | - | 884 W/m² | - |
| 1778188752 | 18.33° C | 67% | 1018.4 hPa | 0 mm | - | 896 W/m² | - |
| 1778188448 | 18.33° C | 66% | 1018.4 hPa | 0 mm | - | 906 W/m² | - |
| 1778188145 | 17.78° C | 70% | 1018.6 hPa | 0 mm | - | 914 W/m² | - |
| 1778187842 | 17.78° C | 68% | 1018.4 hPa | 0 mm | - | 922 W/m² | - |
| 1778187539 | 17.78° C | 68% | 1018.6 hPa | 0 mm | - | 929 W/m² | - |
| 1778187236 | 17.78° C | 69% | 1018.4 hPa | 0 mm | - | 940 W/m² | - |
| 1778186932 | 17.22° C | 69% | 1018.5 hPa | 0 mm | - | 947 W/m² | - |
| 1778186629 | 17.22° C | 69% | 1018.7 hPa | 0 mm | - | 952 W/m² | - |
| 1778186327 | 17.78° C | 68% | 1018.8 hPa | 0 mm | - | 957 W/m² | - |
| 1778186025 | 17.22° C | 70% | 1018.9 hPa | 0 mm | - | 965 W/m² | - |
| 1778185720 | 17.22° C | 70% | 1018.8 hPa | 0 mm | - | 968 W/m² | - |
| 1778185417 | 16.67° C | 72% | 1019 hPa | 0 mm | - | 975 W/m² | - |
| 1778185113 | 16.67° C | 72% | 1019 hPa | 0 mm | - | 977 W/m² | - |
| 1778184808 | 17.22° C | 69% | 1018.9 hPa | 0 mm | - | 982 W/m² | - |
| 1778184505 | 17.22° C | 72% | 1019.1 hPa | 0 mm | - | 989 W/m² | - |
| 1778184201 | 16.67° C | 73% | 1019 hPa | 0 mm | - | 990 W/m² | - |
| 1778183897 | 16.11° C | 74% | 1019.3 hPa | 0 mm | - | 998 W/m² | - |
| 1778183595 | 16.11° C | 75% | 1019.2 hPa | 0 mm | - | 1001 W/m² | - |
* Rain latest hour (hover to see other rain measurements)
** Current wind speed in m/s (hover to see current wind gust speed)